,,,PA_Meas_PMT16A,,PR_Meas_QMR101_102,,RH_Meas_QMH101,,SR_Meas_QMS101,,TA_Meas_QMH101,,GenWind,,GenWind,
date,time,status,PA,status,PR,status,RH,status,SR,status,TA,status,DirAvg,status,SpdAvg,
2010-08-26, 00:00:04,VALID,1010.75,VALID,0,VALID,100.988,VALID,0,VALID,24.4911,VALID,38,VALID,0,
2010-08-26, 00:01:04,VALID,1010.73,VALID,0,VALID,100.995,VALID,0.105969,VALID,24.5106,VALID,38,VALID,0,
2010-08-26, 00:02:04,VALID,1010.72,VALID,0,VALID,100.98,VALID,0.105969,VALID,24.4911,VALID,38,VALID,0,
2010-08-26, 00:03:04,VALID,1010.7,VALID,0,VALID,100.889,VALID,0.105969,VALID,24.5106,VALID,38,VALID,0,
2010-08-26, 00:04:04,VALID,1010.65,VALID,0,VALID,100.866,VALID,0.105969,VALID,24.5106,VALID,38,VALID,0.105859,
2010-08-26, 00:05:04,VALID,1010.61,VALID,0,VALID,100.69,VALID,0.105969,VALID,24.5106,VALID,38,VALID,0.144141,
2010-08-26, 00:06:04,VALID,1010.59,VALID,0,VALID,100.713,VALID,0.105969,VALID,24.5106,VALID,38,VALID,0.256641,
2010-08-26, 00:07:04,VALID,1010.58,VALID,0,VALID,100.736,VALID,0.105969,VALID,24.5301,VALID,38,VALID,0.327344,
2010-08-26, 00:08:04,VALID,1010.54,VALID,0,VALID,100.675,VALID,0.105969,VALID,24.5106,VALID,38,VALID,0.432813,
2010-08-26, 00:09:04,VALID,1010.51,VALID,0,VALID,100.607,VALID,0.105969,VALID,24.5106,VALID,38,VALID,0.355078,
2010-08-26, 00:10:04,VALID,1010.48,VALID,0,VALID,100.507,VALID,0,VALID,24.5106,VALID,42,VALID,0.386719,
2010-08-26, 00:11:04,VALID,1010.43,VALID,0,VALID,100.21,VALID,0.105969,VALID,24.5106,VALID,42,VALID,0.440234,
2010-08-26, 00:12:04,VALID,1010.42,VALID,0,VALID,100.042,VALID,0.105969,VALID,24.5106,VALID,42,VALID,0.326953,
2010-08-26, 00:13:04,VALID,1010.39,VALID,0,VALID,99.9889,VALID,0,VALID,24.5515,VALID,52,VALID,0.360938,
2010-08-26, 00:14:04,VALID,1010.35,VALID,0,VALID,100.164,VALID,0.105969,VALID,24.5496,VALID,52,VALID,0.167187,
2010-08-26, 00:15:05,VALID,1010.33,VALID,0,VALID,100.195,VALID,0.105969,VALID,24.5496,VALID,52,VALID,0.228125,
2010-08-26, 00:16:04,VALID,1010.3,VALID,0,VALID,100.263,VALID,0,VALID,24.5496,VALID,52,VALID,0,
2010-08-26, 00:17:05,VALID,1010.22,VALID,0,VALID,100.317,VALID,0,VALID,24.5301,VALID,52,VALID,0.0535156,
2010-08-26, 00:18:05,VALID,1010.21,VALID,0,VALID,100.187,VALID,0.105969,VALID,24.5515,VALID,52,VALID,0.453516,
2010-08-26, 00:19:05,VALID,1010.19,VALID,0,VALID,100.096,VALID,0.105969,VALID,24.5691,VALID,55,VALID,0.353516,
2010-08-26, 00:20:05,VALID,1010.17,VALID,0,VALID,99.8669,VALID,0,VALID,24.6118,VALID,58,VALID,0.359766,
2010-08-26, 00:21:05,VALID,1010.18,VALID,0,VALID,99.8059,VALID,0,VALID,24.6099,VALID,58,VALID,0.298828,
2010-08-26, 00:22:05,VALID,1010.16,VALID,0,VALID,99.6915,VALID,0,VALID,24.6508,VALID,57,VALID,0.0496094,
2010-08-26, 00:23:05,VALID,1010.1,VALID,0,VALID,99.5618,VALID,0,VALID,24.6508,VALID,57,VALID,0.302344,
2010-08-26, 00:24:05,VALID,1010.11,VALID,0,VALID,99.3178,VALID,0,VALID,24.6489,VALID,82,VALID,0.751172,
2010-08-26, 00:25:05,VALID,1010.08,VALID,0,VALID,99.0509,VALID,0,VALID,24.6684,VALID,69,VALID,0.894141,
2010-08-26, 00:26:05,VALID,1010.07,VALID,0,VALID,98.9289,VALID,0,VALID,24.7288,VALID,85,VALID,0.873438,
2010-08-26, 00:27:05,VALID,1010.06,VALID,0,VALID,98.8831,VALID,0,VALID,24.7269,VALID,80,VALID,0.208203,
2010-08-26, 00:28:05,VALID,1010.06,VALID,0,VALID,98.8298,VALID,0,VALID,24.7483,VALID,80,VALID,0.462109,
2010-08-26, 00:29:05,VALID,1010.05,VALID,0,VALID,98.6925,VALID,0,VALID,24.7269,VALID,72,VALID,0.960547,
2010-08-26, 00:30:05,VALID,1010.05,VALID,0,VALID,98.4866,VALID,0,VALID,24.7464,VALID,89,VALID,0.589063,
2010-08-26, 00:31:05,VALID,1010.05,VALID,0,VALID,98.2045,VALID,0,VALID,24.7483,VALID,88,VALID,0.779688,
2010-08-26, 00:32:05,VALID,1010.01,VALID,0,VALID,98.1129,VALID,0,VALID,24.7659,VALID,71,VALID,0.878125,
2010-08-26, 00:33:05,VALID,1010.03,VALID,0,VALID,98.1129,VALID,0,VALID,24.7659,VALID,63,VALID,0.735547,
2010-08-26, 00:34:05,VALID,1010.01,VALID,0,VALID,98.1129,VALID,0,VALID,24.7659,VALID,64,VALID,0.995313,
2010-08-26, 00:35:05,VALID,1010.02,VALID,0,VALID,97.8155,VALID,0,VALID,24.7854,VALID,64,VALID,0.861719,
2010-08-26, 00:36:05,VALID,1010,VALID,0,VALID,97.8918,VALID,0,VALID,24.7872,VALID,53,VALID,0.810547,
2010-08-26, 00:37:05,VALID,1009.96,VALID,0,VALID,97.9909,VALID,0,VALID,24.7872,VALID,57,VALID,0.782812,
2010-08-26, 00:38:05,VALID,1009.99,VALID,0,VALID,98.1587,VALID,0,VALID,24.7678,VALID,53,VALID,0.746094,
2010-08-26, 00:39:05,VALID,1010.01,VALID,0,VALID,98.0901,VALID,0,VALID,24.7464,VALID,44,VALID,0.716797,
2010-08-26, 00:40:05,VALID,1009.99,VALID,0,VALID,98.1587,VALID,0,VALID,24.7464,VALID,35,VALID,0.428125,
2010-08-26, 00:41:05,VALID,1009.98,VALID,0,VALID,98.3875,VALID,0,VALID,24.7269,VALID,35,VALID,0.302344,
2010-08-26, 00:42:05,VALID,1009.96,VALID,0,VALID,98.6086,VALID,0,VALID,24.7074,VALID,35,VALID,0.123438,
2010-08-26, 00:43:05,VALID,1009.97,VALID,0,VALID,98.5552,VALID,0,VALID,24.6879,VALID,35,VALID,0.363672,
2010-08-26, 00:44:05,VALID,1009.95,VALID,0,VALID,98.6849,VALID,0,VALID,24.6898,VALID,32,VALID,0.489062,
2010-08-26, 00:45:05,VALID,1009.96,VALID,0,VALID,98.7611,VALID,0,VALID,24.6489,VALID,68,VALID,0.790625,
2010-08-26, 00:46:05,VALID,1009.97,VALID,0,VALID,98.5476,VALID,0,VALID,24.6898,VALID,36,VALID,0.951563,
2010-08-26, 00:47:05,VALID,1009.94,VALID,0,VALID,98.601,VALID,0,VALID,24.6898,VALID,20,VALID,0.192578,
2010-08-26, 00:48:05,VALID,1009.92,VALID,0,VALID,98.8221,VALID,0,VALID,24.6684,VALID,20,VALID,0.264062,
2010-08-26, 00:49:05,VALID,1009.9,VALID,0,VALID,98.7993,VALID,0,VALID,24.6489,VALID,61,VALID,0.423828,
2010-08-26, 00:50:05,VALID,1009.85,VALID,0,VALID,98.8145,VALID,0,VALID,24.6471,VALID,61,VALID,0.0769531,
2010-08-26, 00:51:05,VALID,1009.83,VALID,0,VALID,98.7916,VALID,0.105969,VALID,24.6276,VALID,61,VALID,0.291016,
2010-08-26, 00:52:05,VALID,1009.87,VALID,0,VALID,98.4561,VALID,0.105969,VALID,24.6276,VALID,40,VALID,0.565234,
2010-08-26, 00:53:05,VALID,1009.87,VALID,0,VALID,98.5095,VALID,0,VALID,24.6471,VALID,42,VALID,0.274219,
2010-08-26, 00:54:05,VALID,1009.86,VALID,0,VALID,98.5476,VALID,0.105969,VALID,24.6471,VALID,41,VALID,0.541797,
2010-08-26, 00:55:05,VALID,1009.88,VALID,0,VALID,98.4866,VALID,0,VALID,24.6666,VALID,33,VALID,0.619922,
2010-08-26, 00:56:05,VALID,1009.87,VALID,0,VALID,98.5629,VALID,0.105969,VALID,24.686,VALID,94,VALID,0.25,
2010-08-26, 00:57:05,VALID,1009.91,VALID,0,VALID,98.6544,VALID,0.105969,VALID,24.686,VALID,94,VALID,0,
2010-08-26, 00:58:05,VALID,1009.88,VALID,0,VALID,98.4866,VALID,0,VALID,24.6666,VALID,94,VALID,0.0910156,
2010-08-26, 00:59:05,VALID,1009.86,VALID,0,VALID,98.5552,VALID,0,VALID,24.6879,VALID,94,VALID,0,
2010-08-26, 01:00:05,VALID,1009.87,VALID,0,VALID,98.6315,VALID,0,VALID,24.7074,VALID,88,VALID,0.00273437,
2010-08-26, 01:01:05,VALID,1009.85,VALID,0,VALID,98.2426,VALID,0.105969,VALID,24.6666,VALID,30,VALID,0.254687,
2010-08-26, 01:02:05,VALID,1009.83,VALID,0,VALID,98.235,VALID,0,VALID,24.686,VALID,30,VALID,0,
2010-08-26, 01:03:05,VALID,1009.85,VALID,0,VALID,98.1892,VALID,0.105969,VALID,24.686,VALID,30,VALID,0,
2010-08-26, 01:04:05,VALID,1009.81,VALID,0,VALID,98.2578,VALID,0.105969,VALID,24.686,VALID,30,VALID,0,
2010-08-26, 01:05:05,VALID,1009.8,VALID,0,VALID,98.5324,VALID,0,VALID,24.7074,VALID,30,VALID,0,
2010-08-26, 01:06:05,VALID,1009.8,VALID,0,VALID,98.4942,VALID,0,VALID,24.6879,VALID,30,VALID,0,
2010-08-26, 01:07:05,VALID,1009.76,VALID,0,VALID,98.7535,VALID,0,VALID,24.6684,VALID,30,VALID,0,
2010-08-26, 01:08:05,VALID,1009.71,VALID,0,VALID,98.9518,VALID,0,VALID,24.6489,VALID,30,VALID,0,
2010-08-26, 01:09:05,VALID,1009.64,VALID,0,VALID,98.8679,VALID,0,VALID,24.6099,VALID,16,VALID,0.503125,
2010-08-26, 01:10:05,VALID,1009.66,VALID,0,VALID,99.0204,VALID,0,VALID,24.6313,VALID,3,VALID,0.121875,
2010-08-26, 01:11:05,VALID,1009.6,VALID,0,VALID,99.1043,VALID,0,VALID,24.5905,VALID,3,VALID,0.166016,
2010-08-26, 01:12:05,VALID,1009.55,VALID,0,VALID,98.9442,VALID,0,VALID,24.6118,VALID,3,VALID,0,
2010-08-26, 01:13:05,VALID,1009.5,VALID,0,VALID,98.9747,VALID,0,VALID,24.6118,VALID,3,VALID,0,
2010-08-26, 01:14:05,VALID,1009.46,VALID,0,VALID,99.0509,VALID,0,VALID,24.571,VALID,3,VALID,0.179688,
2010-08-26, 01:15:05,VALID,1009.44,VALID,0,VALID,98.9442,VALID,0,VALID,24.6118,VALID,22,VALID,0.177344,
2010-08-26, 01:16:05,VALID,1009.4,VALID,0,VALID,98.9213,VALID,0,VALID,24.6099,VALID,83,VALID,0.460156,
2010-08-26, 01:17:05,VALID,1009.39,VALID,0,VALID,98.967,VALID,0,VALID,24.6099,VALID,83,VALID,0.075,
2010-08-26, 01:18:05,VALID,1009.37,VALID,0,VALID,99.2721,VALID,0,VALID,24.6099,VALID,114,VALID,0.753906,
2010-08-26, 01:19:05,VALID,1009.34,VALID,0,VALID,99.2339,VALID,0,VALID,24.6294,VALID,115,VALID,0.887891,
2010-08-26, 01:20:05,VALID,1009.33,VALID,0,VALID,98.8298,VALID,0.105969,VALID,24.6471,VALID,98,VALID,0.830469,
2010-08-26, 01:21:05,VALID,1009.31,VALID,0,VALID,98.6086,VALID,0,VALID,24.6666,VALID,96,VALID,0.957422,
2010-08-26, 01:22:05,VALID,1009.27,VALID,0,VALID,98.5247,VALID,0.105969,VALID,24.686,VALID,90,VALID,0.979688,
2010-08-26, 01:23:05,VALID,1009.26,VALID,0,VALID,98.5476,VALID,0.105969,VALID,24.725,VALID,90,VALID,0.798047,
2010-08-26, 01:24:05,VALID,1009.23,VALID,0,VALID,98.479,VALID,0.105969,VALID,24.725,VALID,112,VALID,1.05859,
2010-08-26, 01:25:05,VALID,1009.21,VALID,0,VALID,98.6925,VALID,0.105969,VALID,24.725,VALID,116,VALID,0.394531,
2010-08-26, 01:26:05,VALID,1009.18,VALID,0,VALID,98.5781,VALID,0.105969,VALID,24.725,VALID,78,VALID,1.22383,
2010-08-26, 01:27:05,VALID,1009.16,VALID,0,VALID,98.5781,VALID,0,VALID,24.725,VALID,85,VALID,0.642969,
2010-08-26, 01:28:05,VALID,1009.16,VALID,0,VALID,98.4027,VALID,0.105969,VALID,24.7055,VALID,93,VALID,1.23789,
2010-08-26, 01:29:05,VALID,1009.13,VALID,0,VALID,98.6086,VALID,0.105969,VALID,24.7055,VALID,133,VALID,0.397266,
2010-08-26, 01:30:05,VALID,1009.13,VALID,0,VALID,98.7306,VALID,0,VALID,24.7055,VALID,82,VALID,0.592969,
2010-08-26, 01:31:05,VALID,1009.14,VALID,0,VALID,98.54,VALID,0.105969,VALID,24.686,VALID,36,VALID,0.536719,
2010-08-26, 01:32:05,VALID,1009.13,VALID,0,VALID,98.7459,VALID,0,VALID,24.7055,VALID,32,VALID,0.380469,
2010-08-26, 01:33:05,VALID,1009.16,VALID,0,VALID,98.784,VALID,0.105969,VALID,24.686,VALID,34,VALID,0.442969,
2010-08-26, 01:34:05,VALID,1009.12,VALID,0,VALID,98.6925,VALID,0.105969,VALID,24.6666,VALID,61,VALID,0.290625,
2010-08-26, 01:35:05,VALID,1009.08,VALID,0,VALID,98.6315,VALID,0.105969,VALID,24.6452,VALID,52,VALID,0.251172,
2010-08-26, 01:36:05,VALID,1009.06,VALID,0,VALID,98.7688,VALID,0,VALID,24.6666,VALID,28,VALID,0.241016,
2010-08-26, 01:37:05,VALID,1009.08,VALID,0,VALID,98.7764,VALID,0,VALID,24.6879,VALID,20,VALID,0.0121094,
2010-08-26, 01:38:05,VALID,1009.08,VALID,0,VALID,98.8526,VALID,0,VALID,24.6471,VALID,73,VALID,0.361328,
2010-08-26, 01:39:05,VALID,1009.07,VALID,0,VALID,99.089,VALID,0,VALID,24.6276,VALID,73,VALID,0.0078125,
2010-08-26, 01:40:05,VALID,1009.09,VALID,0,VALID,99.0128,VALID,0.105969,VALID,24.6489,VALID,73,VALID,0.357812,
2010-08-26, 01:41:05,VALID,1009.08,VALID,0,VALID,98.9137,VALID,0.105969,VALID,24.6081,VALID,73,VALID,0.171875,
2010-08-26, 01:42:05,VALID,1009.09,VALID,0,VALID,98.9365,VALID,0,VALID,24.6294,VALID,82,VALID,0.457422,
2010-08-26, 01:43:05,VALID,1009.09,VALID,0,VALID,99.0662,VALID,0.105969,VALID,24.6276,VALID,83,VALID,0.137891,
2010-08-26, 01:44:05,VALID,1009.08,VALID,0,VALID,99.3026,VALID,0.105969,VALID,24.6276,VALID,83,VALID,0.511328,
2010-08-26, 01:45:05,VALID,1009.09,VALID,0,VALID,99.2416,VALID,0.105969,VALID,24.6276,VALID,86,VALID,0.653516,
2010-08-26, 01:46:05,VALID,1009.07,VALID,0,VALID,99.1424,VALID,0.105969,VALID,24.6471,VALID,89,VALID,0.665234,
2010-08-26, 01:47:05,VALID,1009.05,VALID,0,VALID,98.8908,VALID,0.105969,VALID,24.6489,VALID,89,VALID,0.476563,
2010-08-26, 01:48:05,VALID,1009.01,VALID,0,VALID,98.723,VALID,0,VALID,24.6666,VALID,89,VALID,0.222656,
2010-08-26, 01:49:05,VALID,1008.98,VALID,0,VALID,98.7383,VALID,0.105969,VALID,24.6666,VALID,89,VALID,0.324609,
2010-08-26, 01:50:05,VALID,1008.91,VALID,0,VALID,98.7688,VALID,0,VALID,24.6898,VALID,89,VALID,0.271875,
2010-08-26, 01:51:05,VALID,1008.89,VALID,0,VALID,99.0204,VALID,0,VALID,24.6703,VALID,89,VALID,0.0359375,
2010-08-26, 01:52:05,VALID,1008.9,VALID,0,VALID,98.967,VALID,0,VALID,24.6489,VALID,89,VALID,0,
2010-08-26, 01:53:05,VALID,1008.88,VALID,0,VALID,99.1577,VALID,0,VALID,24.6489,VALID,89,VALID,0,
2010-08-26, 01:54:05,VALID,1008.86,VALID,0,VALID,99.4856,VALID,0,VALID,24.6508,VALID,89,VALID,0,
2010-08-26, 01:55:05,VALID,1008.85,VALID,0,VALID,99.5466,VALID,0,VALID,24.6118,VALID,86,VALID,0.0898438,
2010-08-26, 01:56:05,VALID,1008.84,VALID,0,VALID,99.6533,VALID,0,VALID,24.532,VALID,86,VALID,0,
2010-08-26, 01:57:05,VALID,1008.85,VALID,0,VALID,99.6686,VALID,0,VALID,24.5357,VALID,86,VALID,0,
2010-08-26, 01:58:05,VALID,1008.84,VALID,0,VALID,99.6838,VALID,0,VALID,24.4735,VALID,86,VALID,0,
2010-08-26, 01:59:05,VALID,1008.83,VALID,0,VALID,99.7525,VALID,0,VALID,24.4754,VALID,86,VALID,0,
2010-08-26, 02:00:05,VALID,1008.82,VALID,0,VALID,99.7525,VALID,0,VALID,24.454,VALID,86,VALID,0.176563,
2010-08-26, 02:01:05,VALID,1008.81,VALID,0,VALID,99.7067,VALID,0,VALID,24.4754,VALID,86,VALID,0,
2010-08-26, 02:02:05,VALID,1008.8,VALID,0,VALID,99.9279,VALID,0,VALID,24.4735,VALID,86,VALID,0.216406,
2010-08-26, 02:03:05,VALID,1008.79,VALID,0,VALID,100.058,VALID,0,VALID,24.4735,VALID,23,VALID,0.497656,
2010-08-26, 02:04:05,VALID,1008.78,VALID,0,VALID,100.355,VALID,0,VALID,24.454,VALID,359,VALID,0.390234,
2010-08-26, 02:05:05,VALID,1008.79,VALID,0,VALID,100.523,VALID,0,VALID,24.4132,VALID,343,VALID,0.34375,
2010-08-26, 02:06:05,VALID,1008.75,VALID,0,VALID,100.584,VALID,0,VALID,24.3937,VALID,340,VALID,0.215625,
2010-08-26, 02:07:05,VALID,1008.75,VALID,0,VALID,100.629,VALID,0,VALID,24.3742,VALID,340,VALID,0.203516,
2010-08-26, 02:08:05,VALID,1008.74,VALID,0,VALID,100.675,VALID,0.105969,VALID,24.3761,VALID,340,VALID,0,
2010-08-26, 02:09:05,VALID,1008.71,VALID,0,VALID,100.713,VALID,0.105969,VALID,24.3547,VALID,340,VALID,0,
2010-08-26, 02:10:05,VALID,1008.69,VALID,0,VALID,100.812,VALID,0.105969,VALID,24.3352,VALID,340,VALID,0.127344,
2010-08-26, 02:11:05,VALID,1008.71,VALID,0,VALID,100.896,VALID,0,VALID,24.3566,VALID,340,VALID,0,
2010-08-26, 02:12:05,VALID,1008.68,VALID,0,VALID,100.889,VALID,0.105969,VALID,24.3158,VALID,340,VALID,0.0363281,
2010-08-26, 02:13:05,VALID,1008.72,VALID,0,VALID,100.912,VALID,0.105969,VALID,24.2963,VALID,340,VALID,0,
2010-08-26, 02:14:05,VALID,1008.71,VALID,0,VALID,100.98,VALID,0.105969,VALID,24.2768,VALID,340,VALID,0.337891,
2010-08-26, 02:15:05,VALID,1008.71,VALID,0,VALID,100.957,VALID,0.105969,VALID,24.2981,VALID,340,VALID,0.553906,
2010-08-26, 02:16:05,VALID,1008.72,VALID,0,VALID,100.934,VALID,0,VALID,24.2768,VALID,340,VALID,0.653125,
2010-08-26, 02:17:05,VALID,1008.72,VALID,0,VALID,101.011,VALID,0,VALID,24.2981,VALID,208,VALID,0.552734,
2010-08-26, 02:18:05,VALID,1008.75,VALID,0,VALID,101.026,VALID,0,VALID,24.2573,VALID,208,VALID,0.575781,
2010-08-26, 02:19:05,VALID,1008.73,VALID,0,VALID,101.209,VALID,0,VALID,24.2786,VALID,208,VALID,0.475,
2010-08-26, 02:20:05,VALID,1008.72,VALID,0,VALID,101.369,VALID,0.105969,VALID,24.2573,VALID,208,VALID,0.499219,
2010-08-26, 02:21:05,VALID,1008.74,VALID,0,VALID,101.43,VALID,0,VALID,24.2786,VALID,208,VALID,0.341016,
2010-08-26, 02:22:05,VALID,1008.73,VALID,0,VALID,101.476,VALID,0.105969,VALID,24.2378,VALID,208,VALID,0.229687,
2010-08-26, 02:23:05,VALID,1008.7,VALID,0,VALID,101.491,VALID,0,VALID,24.2591,VALID,208,VALID,0,
2010-08-26, 02:24:05,VALID,1008.69,VALID,0,VALID,101.575,VALID,0.105969,VALID,24.2591,VALID,208,VALID,0.196484,
2010-08-26, 02:25:05,VALID,1008.68,VALID,0,VALID,101.636,VALID,0.105969,VALID,24.2378,VALID,208,VALID,0,
2010-08-26, 02:26:05,VALID,1008.71,VALID,0,VALID,101.697,VALID,0.105969,VALID,24.2591,VALID,208,VALID,0,
2010-08-26, 02:27:05,VALID,1008.69,VALID,0,VALID,101.72,VALID,0.105969,VALID,24.2378,VALID,208,VALID,0,
2010-08-26, 02:28:05,VALID,1008.69,VALID,0,VALID,101.743,VALID,0,VALID,24.2396,VALID,208,VALID,0.192969,
2010-08-26, 02:29:05,VALID,1008.71,VALID,0,VALID,101.697,VALID,0,VALID,24.2786,VALID,208,VALID,0.126172,
2010-08-26, 02:30:05,VALID,1008.73,VALID,0,VALID,101.613,VALID,0,VALID,24.2768,VALID,208,VALID,0.210938,
2010-08-26, 02:31:05,VALID,1008.75,VALID,0,VALID,101.583,VALID,0,VALID,24.2963,VALID,208,VALID,0,
2010-08-26, 02:32:05,VALID,1008.75,VALID,0,VALID,101.598,VALID,0.105969,VALID,24.2963,VALID,208,VALID,0,
2010-08-26, 02:33:05,VALID,1008.75,VALID,0,VALID,101.644,VALID,0.105969,VALID,24.3176,VALID,208,VALID,0,
2010-08-26, 02:34:05,VALID,1008.74,VALID,0,VALID,101.636,VALID,0,VALID,24.2963,VALID,208,VALID,0,
2010-08-26, 02:35:05,VALID,1008.76,VALID,0,VALID,101.674,VALID,0.105969,VALID,24.2981,VALID,208,VALID,0,
2010-08-26, 02:36:05,VALID,1008.74,VALID,0,VALID,101.72,VALID,0,VALID,24.2573,VALID,208,VALID,0,
2010-08-26, 02:37:05,VALID,1008.71,VALID,0,VALID,101.773,VALID,0.105969,VALID,24.2573,VALID,208,VALID,0,
2010-08-26, 02:38:05,VALID,1008.73,VALID,0,VALID,101.796,VALID,0,VALID,24.2786,VALID,208,VALID,0,
2010-08-26, 02:39:05,VALID,1008.66,VALID,0,VALID,101.796,VALID,0,VALID,24.2378,VALID,208,VALID,0,
2010-08-26, 02:40:05,VALID,1008.64,VALID,0,VALID,101.811,VALID,0,VALID,24.2396,VALID,208,VALID,0,
2010-08-26, 02:41:05,VALID,1008.66,VALID,0,VALID,101.819,VALID,0,VALID,24.1793,VALID,208,VALID,0.471094,
2010-08-26, 02:42:05,VALID,1008.65,VALID,0,VALID,101.933,VALID,0.105969,VALID,24.1793,VALID,342,VALID,0.5375,
2010-08-26, 02:43:05,VALID,1008.65,VALID,0,VALID,102.017,VALID,0.105969,VALID,24.1599,VALID,342,VALID,0.491797,
2010-08-26, 02:44:05,VALID,1008.63,VALID,0,VALID,102.185,VALID,0,VALID,24.1617,VALID,342,VALID,0.398438,
2010-08-26, 02:45:05,VALID,1008.57,VALID,0,VALID,102.261,VALID,0,VALID,24.1227,VALID,342,VALID,0.251953,
2010-08-26, 02:46:05,VALID,1008.56,VALID,0,VALID,102.254,VALID,0,VALID,24.0819,VALID,342,VALID,0.0585938,
2010-08-26, 02:47:05,VALID,1008.54,VALID,0,VALID,102.277,VALID,0,VALID,24.1032,VALID,342,VALID,0.0410156,
2010-08-26, 02:48:05,VALID,1008.53,VALID,0,VALID,102.307,VALID,0.105969,VALID,24.0819,VALID,342,VALID,0,
2010-08-26, 02:49:05,VALID,1008.53,VALID,0,VALID,102.36,VALID,0.105969,VALID,24.0837,VALID,342,VALID,0,
2010-08-26, 02:50:05,VALID,1008.51,VALID,0,VALID,102.399,VALID,0.105969,VALID,24.0429,VALID,342,VALID,0,
2010-08-26, 02:51:05,VALID,1008.52,VALID,0,VALID,102.482,VALID,0.105969,VALID,24.0235,VALID,342,VALID,0.254297,
2010-08-26, 02:52:05,VALID,1008.51,VALID,0,VALID,102.513,VALID,0.105969,VALID,24.0429,VALID,342,VALID,0,
2010-08-26, 02:53:05,VALID,1008.49,VALID,0,VALID,102.528,VALID,0.105969,VALID,24.0235,VALID,342,VALID,0,
2010-08-26, 02:54:05,VALID,1008.49,VALID,0,VALID,102.566,VALID,0,VALID,24.0448,VALID,340,VALID,0.252344,
2010-08-26, 02:55:05,VALID,1008.48,VALID,0,VALID,102.643,VALID,0.105969,VALID,24.0643,VALID,336,VALID,0.0328125,
2010-08-26, 02:56:05,VALID,1008.48,VALID,0,VALID,102.696,VALID,0.105969,VALID,24.0643,VALID,336,VALID,0,
2010-08-26, 02:57:05,VALID,1008.5,VALID,0,VALID,102.696,VALID,0.105969,VALID,24.0448,VALID,336,VALID,0.427734,
2010-08-26, 02:58:05,VALID,1008.48,VALID,0,VALID,102.688,VALID,0.105969,VALID,24.004,VALID,336,VALID,0.187109,
2010-08-26, 02:59:05,VALID,1008.52,VALID,0,VALID,102.643,VALID,0.105969,VALID,24.004,VALID,336,VALID,0,
2010-08-26, 03:00:05,VALID,1008.51,VALID,0,VALID,102.65,VALID,0.105969,VALID,24.004,VALID,336,VALID,0,
2010-08-26, 03:01:05,VALID,1008.53,VALID,0,VALID,102.635,VALID,0.105969,VALID,23.9845,VALID,336,VALID,0,
2010-08-26, 03:02:05,VALID,1008.52,VALID,0,VALID,102.666,VALID,0.105969,VALID,23.9845,VALID,336,VALID,0.244531,
2010-08-26, 03:03:04,VALID,1008.55,VALID,0,VALID,102.696,VALID,0.105969,VALID,24.004,VALID,336,VALID,0.270703,
2010-08-26, 03:04:04,VALID,1008.54,VALID,0,VALID,102.688,VALID,0.105969,VALID,23.9845,VALID,336,VALID,0.292578,
2010-08-26, 03:05:04,VALID,1008.54,VALID,0,VALID,102.719,VALID,0,VALID,23.9863,VALID,336,VALID,0.353906,
2010-08-26, 03:06:04,VALID,1008.53,VALID,0,VALID,102.742,VALID,0.105969,VALID,23.9668,VALID,336,VALID,0.253125,
2010-08-26, 03:07:04,VALID,1008.53,VALID,0,VALID,102.749,VALID,0.105969,VALID,23.9455,VALID,336,VALID,0.316797,
2010-08-26, 03:08:04,VALID,1008.52,VALID,0,VALID,102.78,VALID,0.105969,VALID,23.926,VALID,336,VALID,0,
2010-08-26, 03:09:04,VALID,1008.53,VALID,0,VALID,102.772,VALID,0,VALID,23.926,VALID,336,VALID,0.201172,
2010-08-26, 03:10:04,VALID,1008.54,VALID,0,VALID,102.818,VALID,0,VALID,23.9065,VALID,336,VALID,0.197656,
2010-08-26, 03:11:04,VALID,1008.53,VALID,0,VALID,102.841,VALID,0.105969,VALID,23.9065,VALID,336,VALID,0.189844,
2010-08-26, 03:12:04,VALID,1008.58,VALID,0,VALID,102.887,VALID,0,VALID,23.9084,VALID,336,VALID,0,
2010-08-26, 03:13:04,VALID,1008.59,VALID,0,VALID,102.925,VALID,0,VALID,23.8871,VALID,336,VALID,0,
2010-08-26, 03:14:04,VALID,1008.61,VALID,0,VALID,102.94,VALID,0.105969,VALID,23.8871,VALID,336,VALID,0,
2010-08-26, 03:15:04,VALID,1008.64,VALID,0,VALID,102.971,VALID,0,VALID,23.8889,VALID,336,VALID,0,
2010-08-26, 03:16:04,VALID,1008.68,VALID,0,VALID,102.971,VALID,0,VALID,23.8889,VALID,336,VALID,0,
2010-08-26, 03:17:04,VALID,1008.69,VALID,0,VALID,103.001,VALID,0,VALID,23.8889,VALID,336,VALID,0,
2010-08-26, 03:18:04,VALID,1008.71,VALID,0,VALID,103.024,VALID,0.105969,VALID,23.8889,VALID,336,VALID,0,
2010-08-26, 03:19:04,VALID,1008.71,VALID,0,VALID,103.047,VALID,0.105969,VALID,23.8676,VALID,336,VALID,0,
2010-08-26, 03:20:04,VALID,1008.7,VALID,0,VALID,103.062,VALID,0.105969,VALID,23.8889,VALID,336,VALID,0.374609,
2010-08-26, 03:21:04,VALID,1008.71,VALID,0,VALID,103.07,VALID,0,VALID,23.9278,VALID,336,VALID,0.300391,
2010-08-26, 03:22:04,VALID,1008.72,VALID,0,VALID,103.062,VALID,0,VALID,23.9668,VALID,336,VALID,0.284375,
2010-08-26, 03:23:04,VALID,1008.7,VALID,0,VALID,103.085,VALID,0,VALID,23.965,VALID,303,VALID,0.256641,
2010-08-26, 03:24:04,VALID,1008.7,VALID,0,VALID,103.077,VALID,0,VALID,24.0058,VALID,303,VALID,0.41875,
2010-08-26, 03:25:04,VALID,1008.65,VALID,0,VALID,103.07,VALID,0.105969,VALID,24.0253,VALID,294,VALID,0.805859,
2010-08-26, 03:26:04,VALID,1008.68,VALID,0,VALID,103.039,VALID,0,VALID,24.0235,VALID,275,VALID,0.385547,
2010-08-26, 03:27:04,VALID,1008.67,VALID,0,VALID,103.009,VALID,0.105969,VALID,24.0429,VALID,279,VALID,0.430469,
2010-08-26, 03:28:04,VALID,1008.66,VALID,0,VALID,102.963,VALID,0.105969,VALID,24.0819,VALID,279,VALID,0.276563,
2010-08-26, 03:29:04,VALID,1008.66,VALID,0,VALID,102.894,VALID,0,VALID,24.0624,VALID,279,VALID,0.323438,
2010-08-26, 03:30:04,VALID,1008.66,VALID,0,VALID,102.826,VALID,0,VALID,24.0837,VALID,279,VALID,0.284766,
2010-08-26, 03:31:04,VALID,1008.66,VALID,0,VALID,102.772,VALID,0.105969,VALID,24.0643,VALID,279,VALID,0.276563,
2010-08-26, 03:32:04,VALID,1008.64,VALID,0,VALID,102.749,VALID,0.105969,VALID,24.0235,VALID,329,VALID,0.309375,
2010-08-26, 03:33:04,VALID,1008.66,VALID,0,VALID,102.795,VALID,0,VALID,24.0448,VALID,325,VALID,0.164844,
2010-08-26, 03:34:04,VALID,1008.65,VALID,0,VALID,102.818,VALID,0.105969,VALID,24.0235,VALID,316,VALID,0.26875,
2010-08-26, 03:35:04,VALID,1008.65,VALID,0,VALID,102.841,VALID,0,VALID,24.0253,VALID,310,VALID,0.120703,
2010-08-26, 03:36:04,VALID,1008.68,VALID,0,VALID,102.849,VALID,0,VALID,24.0448,VALID,304,VALID,0.0398437,
2010-08-26, 03:37:04,VALID,1008.68,VALID,0,VALID,102.864,VALID,0,VALID,24.0253,VALID,304,VALID,0,
2010-08-26, 03:38:04,VALID,1008.68,VALID,0,VALID,102.879,VALID,0,VALID,24.0253,VALID,313,VALID,0.317578,
2010-08-26, 03:39:04,VALID,1008.71,VALID,0,VALID,102.902,VALID,0,VALID,24.0253,VALID,313,VALID,0.230469,
2010-08-26, 03:40:04,VALID,1008.73,VALID,0,VALID,102.91,VALID,0,VALID,24.0253,VALID,313,VALID,0,
2010-08-26, 03:41:04,VALID,1008.72,VALID,0,VALID,102.948,VALID,0,VALID,24.0253,VALID,313,VALID,0.0929687,
2010-08-26, 03:42:04,VALID,1008.75,VALID,0,VALID,102.932,VALID,0,VALID,24.0253,VALID,313,VALID,0.0921875,
2010-08-26, 03:43:04,VALID,1008.76,VALID,0,VALID,102.94,VALID,0,VALID,24.0253,VALID,313,VALID,0.207031,